Time,TemperatureF,DewpointF,PressureIn,WindDirection,WindDirectionDegrees,WindSpeedMPH,WindSpeedGustMPH,Humidity,HourlyPrecipIn,Conditions,Clouds,dailyrainin,SoftwareType,DateUTC
2013-05-10 00:03:00,80.9,-99.9,29.88,North,-999,-999.0,-999.0,47,-99.99,,,-99.99,,2013-05-09 22:03:00,
2013-05-10 00:09:00,80.9,-99.9,29.88,North,-999,-999.0,-999.0,47,-99.99,,,-99.99,,2013-05-09 22:09:00,
2013-05-10 00:15:00,80.9,-99.9,29.88,North,-999,-999.0,-999.0,47,-99.99,,,-99.99,,2013-05-09 22:15:00,
2013-05-10 00:21:00,80.7,-99.9,29.88,North,-999,-999.0,-999.0,47,-99.99,,,-99.99,,2013-05-09 22:21:00,
2013-05-10 00:27:00,80.9,-99.9,29.88,North,-999,-999.0,-999.0,47,-99.99,,,-99.99,,2013-05-09 22:27:00,
2013-05-10 00:33:00,80.9,-99.9,29.88,North,-999,-999.0,-999.0,47,-99.99,,,-99.99,,2013-05-09 22:33:00,
2013-05-10 00:39:00,80.9,-99.9,29.87,North,-999,-999.0,-999.0,47,-99.99,,,-99.99,,2013-05-09 22:39:00,
2013-05-10 00:45:00,80.9,-99.9,29.87,North,-999,-999.0,-999.0,47,-99.99,,,-99.99,,2013-05-09 22:45:00,
2013-05-10 00:51:00,80.9,-99.9,29.87,North,-999,-999.0,-999.0,46,-99.99,,,-99.99,,2013-05-09 22:51:00,
2013-05-10 00:57:00,80.9,-99.9,29.87,North,-999,-999.0,-999.0,46,-99.99,,,-99.99,,2013-05-09 22:57:00,
2013-05-10 01:03:00,80.9,-99.9,29.88,North,-999,-999.0,-999.0,46,-99.99,,,-99.99,,2013-05-09 23:03:00,
2013-05-10 01:09:00,80.9,-99.9,29.87,North,-999,-999.0,-999.0,46,-99.99,,,-99.99,,2013-05-09 23:09:00,
2013-05-10 01:15:00,80.7,-99.9,29.87,North,-999,-999.0,-999.0,46,-99.99,,,-99.99,,2013-05-09 23:15:00,
2013-05-10 01:21:00,80.7,-99.9,29.86,North,-999,-999.0,-999.0,46,-99.99,,,-99.99,,2013-05-09 23:21:00,
2013-05-10 01:27:00,80.7,-99.9,29.86,North,-999,-999.0,-999.0,46,-99.99,,,-99.99,,2013-05-09 23:27:00,
2013-05-10 01:33:00,80.7,-99.9,29.86,North,-999,-999.0,-999.0,46,-99.99,,,-99.99,,2013-05-09 23:33:00,
2013-05-10 01:39:00,80.7,-99.9,29.86,North,-999,-999.0,-999.0,46,-99.99,,,-99.99,,2013-05-09 23:39:00,
2013-05-10 01:45:00,80.7,-99.9,29.86,North,-999,-999.0,-999.0,46,-99.99,,,-99.99,,2013-05-09 23:45:00,
2013-05-10 01:51:00,80.7,-99.9,29.86,North,-999,-999.0,-999.0,46,-99.99,,,-99.99,,2013-05-09 23:51:00,
2013-05-10 01:57:00,80.7,-99.9,29.86,North,-999,-999.0,-999.0,46,-99.99,,,-99.99,,2013-05-09 23:57:00,
2013-05-10 02:03:00,80.6,-99.9,29.86,North,-999,-999.0,-999.0,46,-99.99,,,-99.99,,2013-05-10 00:03:00,
2013-05-10 02:09:00,80.6,-99.9,29.85,North,-999,-999.0,-999.0,46,-99.99,,,-99.99,,2013-05-10 00:09:00,
2013-05-10 02:15:00,80.6,-99.9,29.85,North,-999,-999.0,-999.0,46,-99.99,,,-99.99,,2013-05-10 00:15:00,
2013-05-10 02:21:00,80.6,-99.9,29.85,North,-999,-999.0,-999.0,46,-99.99,,,-99.99,,2013-05-10 00:21:00,
2013-05-10 02:27:00,80.6,-99.9,29.85,North,-999,-999.0,-999.0,46,-99.99,,,-99.99,,2013-05-10 00:27:00,
2013-05-10 02:33:00,80.6,-99.9,29.86,North,-999,-999.0,-999.0,46,-99.99,,,-99.99,,2013-05-10 00:33:00,
2013-05-10 02:39:00,80.6,-99.9,29.86,North,-999,-999.0,-999.0,46,-99.99,,,-99.99,,2013-05-10 00:39:00,
2013-05-10 02:45:00,80.6,-99.9,29.85,North,-999,-999.0,-999.0,46,-99.99,,,-99.99,,2013-05-10 00:45:00,
2013-05-10 02:51:00,80.6,-99.9,29.85,North,-999,-999.0,-999.0,46,-99.99,,,-99.99,,2013-05-10 00:51:00,
2013-05-10 02:57:00,80.6,-99.9,29.85,North,-999,-999.0,-999.0,46,-99.99,,,-99.99,,2013-05-10 00:57:00,
2013-05-10 03:05:00,80.6,-99.9,29.85,North,-999,-999.0,-999.0,46,-99.99,,,-99.99,,2013-05-10 01:05:00,
2013-05-10 03:15:00,80.6,-99.9,29.84,North,-999,-999.0,-999.0,46,-99.99,,,-99.99,,2013-05-10 01:15:00,
2013-05-10 03:21:00,80.6,-99.9,29.85,North,-999,-999.0,-999.0,46,-99.99,,,-99.99,,2013-05-10 01:21:00,
2013-05-10 03:27:00,80.4,-99.9,29.85,North,-999,-999.0,-999.0,46,-99.99,,,-99.99,,2013-05-10 01:27:00,
2013-05-10 03:33:00,80.4,-99.9,29.85,North,-999,-999.0,-999.0,46,-99.99,,,-99.99,,2013-05-10 01:33:00,
2013-05-10 03:39:00,80.6,-99.9,29.85,North,-999,-999.0,-999.0,46,-99.99,,,-99.99,,2013-05-10 01:39:00,
2013-05-10 03:45:00,80.4,-99.9,29.85,North,-999,-999.0,-999.0,45,-99.99,,,-99.99,,2013-05-10 01:45:00,
2013-05-10 03:51:00,80.4,-99.9,29.84,North,-999,-999.0,-999.0,45,-99.99,,,-99.99,,2013-05-10 01:51:00,
2013-05-10 03:57:00,80.4,-99.9,29.84,North,-999,-999.0,-999.0,45,-99.99,,,-99.99,,2013-05-10 01:57:00,
2013-05-10 04:05:00,80.4,-99.9,29.84,North,-999,-999.0,-999.0,45,-99.99,,,-99.99,,2013-05-10 02:05:00,
2013-05-10 04:15:00,80.4,-99.9,29.84,North,-999,-999.0,-999.0,45,-99.99,,,-99.99,,2013-05-10 02:15:00,
2013-05-10 04:21:00,80.4,-99.9,29.84,North,-999,-999.0,-999.0,45,-99.99,,,-99.99,,2013-05-10 02:21:00,
2013-05-10 04:27:00,80.4,-99.9,29.84,North,-999,-999.0,-999.0,45,-99.99,,,-99.99,,2013-05-10 02:27:00,
2013-05-10 04:33:00,80.4,-99.9,29.83,North,-999,-999.0,-999.0,45,-99.99,,,-99.99,,2013-05-10 02:33:00,
2013-05-10 04:39:00,80.4,-99.9,29.84,North,-999,-999.0,-999.0,45,-99.99,,,-99.99,,2013-05-10 02:39:00,
2013-05-10 04:45:00,80.4,-99.9,29.84,North,-999,-999.0,-999.0,45,-99.99,,,-99.99,,2013-05-10 02:45:00,
2013-05-10 04:51:00,80.4,-99.9,29.84,North,-999,-999.0,-999.0,45,-99.99,,,-99.99,,2013-05-10 02:51:00,
2013-05-10 04:57:00,80.4,-99.9,29.84,North,-999,-999.0,-999.0,45,-99.99,,,-99.99,,2013-05-10 02:57:00,
2013-05-10 05:05:00,80.4,-99.9,29.84,North,-999,-999.0,-999.0,45,-99.99,,,-99.99,,2013-05-10 03:05:00,
2013-05-10 05:15:00,80.2,-99.9,29.84,North,-999,-999.0,-999.0,45,-99.99,,,-99.99,,2013-05-10 03:15:00,
2013-05-10 05:21:00,80.2,-99.9,29.83,North,-999,-999.0,-999.0,45,-99.99,,,-99.99,,2013-05-10 03:21:00,
2013-05-10 05:27:00,80.2,-99.9,29.83,North,-999,-999.0,-999.0,45,-99.99,,,-99.99,,2013-05-10 03:27:00,
2013-05-10 05:33:00,80.2,-99.9,29.83,North,-999,-999.0,-999.0,45,-99.99,,,-99.99,,2013-05-10 03:33:00,
2013-05-10 05:39:00,80.2,-99.9,29.83,North,-999,-999.0,-999.0,45,-99.99,,,-99.99,,2013-05-10 03:39:00,
2013-05-10 05:45:00,80.2,-99.9,29.84,North,-999,-999.0,-999.0,45,-99.99,,,-99.99,,2013-05-10 03:45:00,
2013-05-10 05:51:00,80.2,-99.9,29.84,North,-999,-999.0,-999.0,45,-99.99,,,-99.99,,2013-05-10 03:51:00,
2013-05-10 05:57:00,80.2,-99.9,29.84,North,-999,-999.0,-999.0,45,-99.99,,,-99.99,,2013-05-10 03:57:00,
2013-05-10 06:05:00,80.2,-99.9,29.85,North,-999,-999.0,-999.0,45,-99.99,,,-99.99,,2013-05-10 04:05:00,
2013-05-10 06:15:00,80.2,-99.9,29.85,North,-999,-999.0,-999.0,45,-99.99,,,-99.99,,2013-05-10 04:15:00,
2013-05-10 06:21:00,80.2,-99.9,29.85,North,-999,-999.0,-999.0,45,-99.99,,,-99.99,,2013-05-10 04:21:00,
2013-05-10 06:27:00,80.2,-99.9,29.85,North,-999,-999.0,-999.0,45,-99.99,,,-99.99,,2013-05-10 04:27:00,
2013-05-10 06:33:00,80.2,-99.9,29.85,North,-999,-999.0,-999.0,45,-99.99,,,-99.99,,2013-05-10 04:33:00,
2013-05-10 06:39:00,80.2,-99.9,29.83,North,-999,-999.0,-999.0,45,-99.99,,,-99.99,,2013-05-10 04:39:00,
2013-05-10 06:45:00,80.2,-99.9,29.83,North,-999,-999.0,-999.0,45,-99.99,,,-99.99,,2013-05-10 04:45:00,
2013-05-10 06:51:00,80.2,-99.9,29.84,North,-999,-999.0,-999.0,45,-99.99,,,-99.99,,2013-05-10 04:51:00,
2013-05-10 06:57:00,80.2,-99.9,29.85,North,-999,-999.0,-999.0,45,-99.99,,,-99.99,,2013-05-10 04:57:00,
2013-05-10 07:03:00,80.2,-99.9,29.85,North,-999,-999.0,-999.0,45,-99.99,,,-99.99,,2013-05-10 05:03:00,
2013-05-10 07:09:00,80.2,-99.9,29.84,North,-999,-999.0,-999.0,45,-99.99,,,-99.99,,2013-05-10 05:09:00,
2013-05-10 07:15:00,80.2,-99.9,29.85,North,-999,-999.0,-999.0,45,-99.99,,,-99.99,,2013-05-10 05:15:00,
2013-05-10 07:21:00,80.2,-99.9,29.85,North,-999,-999.0,-999.0,45,-99.99,,,-99.99,,2013-05-10 05:21:00,
2013-05-10 07:27:00,80.2,-99.9,29.85,North,-999,-999.0,-999.0,46,-99.99,,,-99.99,,2013-05-10 05:27:00,
2013-05-10 07:33:00,80.2,-99.9,29.84,North,-999,-999.0,-999.0,46,-99.99,,,-99.99,,2013-05-10 05:33:00,
2013-05-10 07:39:00,80.2,-99.9,29.85,North,-999,-999.0,-999.0,46,-99.99,,,-99.99,,2013-05-10 05:39:00,
2013-05-10 07:45:00,80.2,-99.9,29.85,North,-999,-999.0,-999.0,46,-99.99,,,-99.99,,2013-05-10 05:45:00,
2013-05-10 07:51:00,80.2,-99.9,29.84,North,-999,-999.0,-999.0,46,-99.99,,,-99.99,,2013-05-10 05:51:00,
2013-05-10 07:57:00,80.2,-99.9,29.85,North,-999,-999.0,-999.0,46,-99.99,,,-99.99,,2013-05-10 05:57:00,
2013-05-10 08:03:00,80.2,-99.9,29.84,North,-999,-999.0,-999.0,46,-99.99,,,-99.99,,2013-05-10 06:03:00,
2013-05-10 08:09:00,80.2,-99.9,29.85,North,-999,-999.0,-999.0,46,-99.99,,,-99.99,,2013-05-10 06:09:00,
2013-05-10 08:15:00,80.2,-99.9,29.85,North,-999,-999.0,-999.0,48,-99.99,,,-99.99,,2013-05-10 06:15:00,
2013-05-10 08:21:00,80.2,-99.9,29.85,North,-999,-999.0,-999.0,48,-99.99,,,-99.99,,2013-05-10 06:21:00,
2013-05-10 08:27:00,80.2,-99.9,29.85,North,-999,-999.0,-999.0,48,-99.99,,,-99.99,,2013-05-10 06:27:00,
2013-05-10 08:33:00,80.2,-99.9,29.86,North,-999,-999.0,-999.0,48,-99.99,,,-99.99,,2013-05-10 06:33:00,
2013-05-10 08:39:00,80.4,-99.9,29.86,North,-999,-999.0,-999.0,48,-99.99,,,-99.99,,2013-05-10 06:39:00,
2013-05-10 08:45:00,80.2,-99.9,29.86,North,-999,-999.0,-999.0,48,-99.99,,,-99.99,,2013-05-10 06:45:00,
2013-05-10 08:51:00,80.4,-99.9,29.85,North,-999,-999.0,-999.0,48,-99.99,,,-99.99,,2013-05-10 06:51:00,
2013-05-10 08:57:00,80.4,-99.9,29.86,North,-999,-999.0,-999.0,48,-99.99,,,-99.99,,2013-05-10 06:57:00,
2013-05-10 09:03:00,80.4,-99.9,29.87,North,-999,-999.0,-999.0,48,-99.99,,,-99.99,,2013-05-10 07:03:00,
2013-05-10 09:09:00,80.4,-99.9,29.87,North,-999,-999.0,-999.0,48,-99.99,,,-99.99,,2013-05-10 07:09:00,
2013-05-10 09:15:00,80.4,-99.9,29.87,North,-999,-999.0,-999.0,48,-99.99,,,-99.99,,2013-05-10 07:15:00,
2013-05-10 09:21:00,80.4,-99.9,29.87,North,-999,-999.0,-999.0,48,-99.99,,,-99.99,,2013-05-10 07:21:00,
2013-05-10 09:27:00,80.4,-99.9,29.87,North,-999,-999.0,-999.0,48,-99.99,,,-99.99,,2013-05-10 07:27:00,
2013-05-10 09:33:00,80.4,-99.9,29.86,North,-999,-999.0,-999.0,48,-99.99,,,-99.99,,2013-05-10 07:33:00,
2013-05-10 09:39:00,80.4,-99.9,29.87,North,-999,-999.0,-999.0,48,-99.99,,,-99.99,,2013-05-10 07:39:00,
2013-05-10 09:45:00,80.4,-99.9,29.86,North,-999,-999.0,-999.0,48,-99.99,,,-99.99,,2013-05-10 07:45:00,
2013-05-10 09:51:00,80.2,-99.9,29.87,North,-999,-999.0,-999.0,48,-99.99,,,-99.99,,2013-05-10 07:51:00,
2013-05-10 09:57:00,80.2,-99.9,29.87,North,-999,-999.0,-999.0,48,-99.99,,,-99.99,,2013-05-10 07:57:00,
2013-05-10 10:03:00,80.2,-99.9,29.87,North,-999,-999.0,-999.0,48,-99.99,,,-99.99,,2013-05-10 08:03:00,
2013-05-10 10:09:00,80.2,-99.9,29.87,North,-999,-999.0,-999.0,48,-99.99,,,-99.99,,2013-05-10 08:09:00,
2013-05-10 10:15:00,80.2,-99.9,29.88,North,-999,-999.0,-999.0,48,-99.99,,,-99.99,,2013-05-10 08:15:00,
2013-05-10 10:21:00,80.2,-99.9,29.88,North,-999,-999.0,-999.0,48,-99.99,,,-99.99,,2013-05-10 08:21:00,
2013-05-10 10:27:00,80.2,-99.9,29.88,North,-999,-999.0,-999.0,48,-99.99,,,-99.99,,2013-05-10 08:27:00,
2013-05-10 10:33:00,80.2,-99.9,29.88,North,-999,-999.0,-999.0,48,-99.99,,,-99.99,,2013-05-10 08:33:00,
2013-05-10 10:39:00,80.4,-99.9,29.88,North,-999,-999.0,-999.0,48,-99.99,,,-99.99,,2013-05-10 08:39:00,
2013-05-10 10:45:00,80.4,-99.9,29.88,North,-999,-999.0,-999.0,48,-99.99,,,-99.99,,2013-05-10 08:45:00,
2013-05-10 10:51:00,80.4,-99.9,29.89,North,-999,-999.0,-999.0,48,-99.99,,,-99.99,,2013-05-10 08:51:00,
2013-05-10 10:57:00,80.6,-99.9,29.88,North,-999,-999.0,-999.0,48,-99.99,,,-99.99,,2013-05-10 08:57:00,
2013-05-10 11:03:00,80.6,-99.9,29.88,North,-999,-999.0,-999.0,48,-99.99,,,-99.99,,2013-05-10 09:03:00,
2013-05-10 11:09:00,80.6,-99.9,29.88,North,-999,-999.0,-999.0,48,-99.99,,,-99.99,,2013-05-10 09:09:00,
2013-05-10 11:15:00,80.6,-99.9,29.88,North,-999,-999.0,-999.0,48,-99.99,,,-99.99,,2013-05-10 09:15:00,
2013-05-10 11:21:00,80.6,-99.9,29.88,North,-999,-999.0,-999.0,48,-99.99,,,-99.99,,2013-05-10 09:21:00,
2013-05-10 11:27:00,80.6,-99.9,29.88,North,-999,-999.0,-999.0,47,-99.99,,,-99.99,,2013-05-10 09:27:00,
2013-05-10 11:33:00,80.6,-99.9,29.89,North,-999,-999.0,-999.0,47,-99.99,,,-99.99,,2013-05-10 09:33:00,
2013-05-10 11:39:00,80.6,-99.9,29.89,North,-999,-999.0,-999.0,47,-99.99,,,-99.99,,2013-05-10 09:39:00,
2013-05-10 11:45:00,80.6,-99.9,29.89,North,-999,-999.0,-999.0,47,-99.99,,,-99.99,,2013-05-10 09:45:00,
2013-05-10 11:51:00,80.6,-99.9,29.89,North,-999,-999.0,-999.0,47,-99.99,,,-99.99,,2013-05-10 09:51:00,
2013-05-10 11:57:00,80.6,-99.9,29.90,North,-999,-999.0,-999.0,47,-99.99,,,-99.99,,2013-05-10 09:57:00,
2013-05-10 12:03:00,80.6,-99.9,29.89,North,-999,-999.0,-999.0,47,-99.99,,,-99.99,,2013-05-10 10:03:00,
2013-05-10 12:09:00,80.6,-99.9,29.90,North,-999,-999.0,-999.0,47,-99.99,,,-99.99,,2013-05-10 10:09:00,
2013-05-10 12:15:00,80.6,-99.9,29.90,North,-999,-999.0,-999.0,47,-99.99,,,-99.99,,2013-05-10 10:15:00,
2013-05-10 12:21:00,80.6,-99.9,29.90,North,-999,-999.0,-999.0,47,-99.99,,,-99.99,,2013-05-10 10:21:00,
2013-05-10 12:27:00,80.6,-99.9,29.91,North,-999,-999.0,-999.0,47,-99.99,,,-99.99,,2013-05-10 10:27:00,
2013-05-10 12:33:00,80.6,-99.9,29.91,North,-999,-999.0,-999.0,47,-99.99,,,-99.99,,2013-05-10 10:33:00,
2013-05-10 12:39:00,80.6,-99.9,29.90,North,-999,-999.0,-999.0,47,-99.99,,,-99.99,,2013-05-10 10:39:00,
2013-05-10 12:45:00,80.7,-99.9,29.90,North,-999,-999.0,-999.0,47,-99.99,,,-99.99,,2013-05-10 10:45:00,
2013-05-10 12:51:00,80.7,-99.9,29.90,North,-999,-999.0,-999.0,47,-99.99,,,-99.99,,2013-05-10 10:51:00,
2013-05-10 12:57:00,80.7,-99.9,29.91,North,-999,-999.0,-999.0,47,-99.99,,,-99.99,,2013-05-10 10:57:00,
2013-05-10 13:03:00,80.7,-99.9,29.91,North,-999,-999.0,-999.0,47,-99.99,,,-99.99,,2013-05-10 11:03:00,
2013-05-10 13:09:00,80.6,-99.9,29.91,North,-999,-999.0,-999.0,47,-99.99,,,-99.99,,2013-05-10 11:09:00,
2013-05-10 13:15:00,80.7,-99.9,29.91,North,-999,-999.0,-999.0,47,-99.99,,,-99.99,,2013-05-10 11:15:00,
2013-05-10 13:21:00,80.7,-99.9,29.91,North,-999,-999.0,-999.0,47,-99.99,,,-99.99,,2013-05-10 11:21:00,
2013-05-10 13:27:00,80.7,-99.9,29.92,North,-999,-999.0,-999.0,47,-99.99,,,-99.99,,2013-05-10 11:27:00,
2013-05-10 13:33:00,80.7,-99.9,29.91,North,-999,-999.0,-999.0,47,-99.99,,,-99.99,,2013-05-10 11:33:00,
2013-05-10 13:39:00,80.7,-99.9,29.91,North,-999,-999.0,-999.0,47,-99.99,,,-99.99,,2013-05-10 11:39:00,
2013-05-10 13:45:00,80.7,-99.9,29.91,North,-999,-999.0,-999.0,47,-99.99,,,-99.99,,2013-05-10 11:45:00,
2013-05-10 13:51:00,80.7,-99.9,29.91,North,-999,-999.0,-999.0,47,-99.99,,,-99.99,,2013-05-10 11:51:00,
2013-05-10 13:57:00,80.7,-99.9,29.91,North,-999,-999.0,-999.0,46,-99.99,,,-99.99,,2013-05-10 11:57:00,
2013-05-10 14:03:00,80.7,-99.9,29.91,North,-999,-999.0,-999.0,46,-99.99,,,-99.99,,2013-05-10 12:03:00,
2013-05-10 14:09:00,80.7,-99.9,29.92,North,-999,-999.0,-999.0,46,-99.99,,,-99.99,,2013-05-10 12:09:00,
2013-05-10 14:15:00,80.7,-99.9,29.92,North,-999,-999.0,-999.0,46,-99.99,,,-99.99,,2013-05-10 12:15:00,
2013-05-10 14:21:00,80.7,-99.9,29.92,North,-999,-999.0,-999.0,46,-99.99,,,-99.99,,2013-05-10 12:21:00,
2013-05-10 14:27:00,80.7,-99.9,29.92,North,-999,-999.0,-999.0,46,-99.99,,,-99.99,,2013-05-10 12:27:00,
2013-05-10 14:33:00,80.7,-99.9,29.92,North,-999,-999.0,-999.0,46,-99.99,,,-99.99,,2013-05-10 12:33:00,
2013-05-10 14:39:00,80.7,-99.9,29.92,North,-999,-999.0,-999.0,46,-99.99,,,-99.99,,2013-05-10 12:39:00,
2013-05-10 14:45:00,80.7,-99.9,29.92,North,-999,-999.0,-999.0,46,-99.99,,,-99.99,,2013-05-10 12:45:00,
2013-05-10 14:51:00,80.7,-99.9,29.92,North,-999,-999.0,-999.0,46,-99.99,,,-99.99,,2013-05-10 12:51:00,
2013-05-10 14:57:00,80.7,-99.9,29.92,North,-999,-999.0,-999.0,46,-99.99,,,-99.99,,2013-05-10 12:57:00,
2013-05-10 15:03:00,80.7,-99.9,29.92,North,-999,-999.0,-999.0,46,-99.99,,,-99.99,,2013-05-10 13:03:00,
2013-05-10 15:09:00,80.7,-99.9,29.92,North,-999,-999.0,-999.0,46,-99.99,,,-99.99,,2013-05-10 13:09:00,
2013-05-10 15:15:00,80.7,-99.9,29.92,North,-999,-999.0,-999.0,46,-99.99,,,-99.99,,2013-05-10 13:15:00,
2013-05-10 15:21:00,80.7,-99.9,29.93,North,-999,-999.0,-999.0,46,-99.99,,,-99.99,,2013-05-10 13:21:00,
2013-05-10 15:27:00,80.6,-99.9,29.93,North,-999,-999.0,-999.0,46,-99.99,,,-99.99,,2013-05-10 13:27:00,
2013-05-10 15:33:00,80.6,-99.9,29.93,North,-999,-999.0,-999.0,46,-99.99,,,-99.99,,2013-05-10 13:33:00,
2013-05-10 15:39:00,80.6,-99.9,29.93,North,-999,-999.0,-999.0,47,-99.99,,,-99.99,,2013-05-10 13:39:00,
2013-05-10 15:45:00,80.6,-99.9,29.93,North,-999,-999.0,-999.0,46,-99.99,,,-99.99,,2013-05-10 13:45:00,
2013-05-10 15:51:00,80.6,-99.9,29.93,North,-999,-999.0,-999.0,46,-99.99,,,-99.99,,2013-05-10 13:51:00,
2013-05-10 15:57:00,80.4,-99.9,29.93,North,-999,-999.0,-999.0,46,-99.99,,,-99.99,,2013-05-10 13:57:00,
2013-05-10 16:03:00,80.4,-99.9,29.93,North,-999,-999.0,-999.0,46,-99.99,,,-99.99,,2013-05-10 14:03:00,
2013-05-10 16:09:00,80.4,-99.9,29.93,North,-999,-999.0,-999.0,46,-99.99,,,-99.99,,2013-05-10 14:09:00,
2013-05-10 16:15:00,80.4,-99.9,29.93,North,-999,-999.0,-999.0,47,-99.99,,,-99.99,,2013-05-10 14:15:00,
2013-05-10 16:21:00,80.4,-99.9,29.93,North,-999,-999.0,-999.0,47,-99.99,,,-99.99,,2013-05-10 14:21:00,
2013-05-10 16:27:00,80.4,-99.9,29.93,North,-999,-999.0,-999.0,47,-99.99,,,-99.99,,2013-05-10 14:27:00,
2013-05-10 16:33:00,80.4,-99.9,29.93,North,-999,-999.0,-999.0,46,-99.99,,,-99.99,,2013-05-10 14:33:00,
2013-05-10 16:39:00,80.4,-99.9,29.93,North,-999,-999.0,-999.0,46,-99.99,,,-99.99,,2013-05-10 14:39:00,
2013-05-10 16:45:00,80.4,-99.9,29.93,North,-999,-999.0,-999.0,46,-99.99,,,-99.99,,2013-05-10 14:45:00,
2013-05-10 16:51:00,80.4,-99.9,29.93,North,-999,-999.0,-999.0,46,-99.99,,,-99.99,,2013-05-10 14:51:00,
2013-05-10 16:57:00,80.4,-99.9,29.93,North,-999,-999.0,-999.0,46,-99.99,,,-99.99,,2013-05-10 14:57:00,
2013-05-10 17:03:00,80.4,-99.9,29.93,North,-999,-999.0,-999.0,46,-99.99,,,-99.99,,2013-05-10 15:03:00,
2013-05-10 17:09:00,80.4,-99.9,29.93,North,-999,-999.0,-999.0,46,-99.99,,,-99.99,,2013-05-10 15:09:00,
2013-05-10 17:15:00,80.4,-99.9,29.93,North,-999,-999.0,-999.0,46,-99.99,,,-99.99,,2013-05-10 15:15:00,
2013-05-10 17:21:00,80.4,-99.9,29.93,North,-999,-999.0,-999.0,46,-99.99,,,-99.99,,2013-05-10 15:21:00,
2013-05-10 17:27:00,80.4,-99.9,29.93,North,-999,-999.0,-999.0,46,-99.99,,,-99.99,,2013-05-10 15:27:00,
2013-05-10 17:33:00,80.6,-99.9,29.93,North,-999,-999.0,-999.0,46,-99.99,,,-99.99,,2013-05-10 15:33:00,
2013-05-10 17:39:00,80.4,-99.9,29.93,North,-999,-999.0,-999.0,45,-99.99,,,-99.99,,2013-05-10 15:39:00,
2013-05-10 17:45:00,80.4,-99.9,29.93,North,-999,-999.0,-999.0,47,-99.99,,,-99.99,,2013-05-10 15:45:00,
2013-05-10 17:51:00,80.4,-99.9,29.93,North,-999,-999.0,-999.0,47,-99.99,,,-99.99,,2013-05-10 15:51:00,
2013-05-10 17:57:00,80.4,-99.9,29.92,North,-999,-999.0,-999.0,46,-99.99,,,-99.99,,2013-05-10 15:57:00,
2013-05-10 18:03:00,80.4,-99.9,29.93,North,-999,-999.0,-999.0,45,-99.99,,,-99.99,,2013-05-10 16:03:00,
2013-05-10 18:09:00,80.2,-99.9,29.92,North,-999,-999.0,-999.0,45,-99.99,,,-99.99,,2013-05-10 16:09:00,
2013-05-10 18:15:00,80.2,-99.9,29.93,North,-999,-999.0,-999.0,45,-99.99,,,-99.99,,2013-05-10 16:15:00,
2013-05-10 18:21:00,80.0,-99.9,29.92,North,-999,-999.0,-999.0,45,-99.99,,,-99.99,,2013-05-10 16:21:00,
2013-05-10 18:27:00,80.0,-99.9,29.93,North,-999,-999.0,-999.0,45,-99.99,,,-99.99,,2013-05-10 16:27:00,
2013-05-10 18:33:00,80.0,-99.9,29.93,North,-999,-999.0,-999.0,45,-99.99,,,-99.99,,2013-05-10 16:33:00,
2013-05-10 18:39:00,80.0,-99.9,29.93,North,-999,-999.0,-999.0,45,-99.99,,,-99.99,,2013-05-10 16:39:00,
2013-05-10 18:45:00,80.0,-99.9,29.93,North,-999,-999.0,-999.0,45,-99.99,,,-99.99,,2013-05-10 16:45:00,
2013-05-10 18:51:00,80.0,-99.9,29.93,North,-999,-999.0,-999.0,45,-99.99,,,-99.99,,2013-05-10 16:51:00,
2013-05-10 18:57:00,80.0,-99.9,29.93,North,-999,-999.0,-999.0,45,-99.99,,,-99.99,,2013-05-10 16:57:00,
2013-05-10 19:03:00,79.8,-99.9,29.93,North,-999,-999.0,-999.0,45,-99.99,,,-99.99,,2013-05-10 17:03:00,
2013-05-10 19:09:00,79.8,-99.9,29.93,North,-999,-999.0,-999.0,46,-99.99,,,-99.99,,2013-05-10 17:09:00,
2013-05-10 19:15:00,80.0,-99.9,29.93,North,-999,-999.0,-999.0,46,-99.99,,,-99.99,,2013-05-10 17:15:00,
2013-05-10 19:21:00,80.0,-99.9,29.93,North,-999,-999.0,-999.0,46,-99.99,,,-99.99,,2013-05-10 17:21:00,
2013-05-10 19:27:00,80.0,-99.9,29.94,North,-999,-999.0,-999.0,45,-99.99,,,-99.99,,2013-05-10 17:27:00,
2013-05-10 19:33:00,80.2,-99.9,29.94,North,-999,-999.0,-999.0,45,-99.99,,,-99.99,,2013-05-10 17:33:00,
2013-05-10 19:39:00,80.2,-99.9,29.94,North,-999,-999.0,-999.0,45,-99.99,,,-99.99,,2013-05-10 17:39:00,
2013-05-10 19:45:00,80.0,-99.9,29.94,North,-999,-999.0,-999.0,45,-99.99,,,-99.99,,2013-05-10 17:45:00,
2013-05-10 19:51:00,80.0,-99.9,29.94,North,-999,-999.0,-999.0,45,-99.99,,,-99.99,,2013-05-10 17:51:00,
2013-05-10 19:57:00,80.0,-99.9,29.94,North,-999,-999.0,-999.0,45,-99.99,,,-99.99,,2013-05-10 17:57:00,
2013-05-10 20:03:00,80.0,-99.9,29.95,North,-999,-999.0,-999.0,45,-99.99,,,-99.99,,2013-05-10 18:03:00,
2013-05-10 20:09:00,80.0,-99.9,29.95,North,-999,-999.0,-999.0,45,-99.99,,,-99.99,,2013-05-10 18:09:00,
2013-05-10 20:15:00,80.0,-99.9,29.95,North,-999,-999.0,-999.0,45,-99.99,,,-99.99,,2013-05-10 18:15:00,
2013-05-10 20:21:00,80.0,-99.9,29.95,North,-999,-999.0,-999.0,45,-99.99,,,-99.99,,2013-05-10 18:21:00,
2013-05-10 20:27:00,80.0,-99.9,29.95,North,-999,-999.0,-999.0,45,-99.99,,,-99.99,,2013-05-10 18:27:00,
2013-05-10 20:33:00,80.0,-99.9,29.95,North,-999,-999.0,-999.0,47,-99.99,,,-99.99,,2013-05-10 18:33:00,
2013-05-10 20:39:00,80.0,-99.9,29.96,North,-999,-999.0,-999.0,48,-99.99,,,-99.99,,2013-05-10 18:39:00,
2013-05-10 20:45:00,80.0,-99.9,29.96,North,-999,-999.0,-999.0,48,-99.99,,,-99.99,,2013-05-10 18:45:00,
2013-05-10 20:51:00,80.2,-99.9,29.96,North,-999,-999.0,-999.0,48,-99.99,,,-99.99,,2013-05-10 18:51:00,
2013-05-10 20:57:00,80.2,-99.9,29.96,North,-999,-999.0,-999.0,48,-99.99,,,-99.99,,2013-05-10 18:57:00,
2013-05-10 21:03:00,80.2,-99.9,29.96,North,-999,-999.0,-999.0,49,-99.99,,,-99.99,,2013-05-10 19:03:00,
2013-05-10 21:09:00,80.2,-99.9,29.96,North,-999,-999.0,-999.0,48,-99.99,,,-99.99,,2013-05-10 19:09:00,
2013-05-10 21:15:00,80.2,-99.9,29.97,North,-999,-999.0,-999.0,49,-99.99,,,-99.99,,2013-05-10 19:15:00,
2013-05-10 21:21:00,80.2,-99.9,29.97,North,-999,-999.0,-999.0,49,-99.99,,,-99.99,,2013-05-10 19:21:00,
2013-05-10 21:27:00,80.2,-99.9,29.97,North,-999,-999.0,-999.0,49,-99.99,,,-99.99,,2013-05-10 19:27:00,
2013-05-10 21:33:00,80.2,-99.9,29.97,North,-999,-999.0,-999.0,49,-99.99,,,-99.99,,2013-05-10 19:33:00,
2013-05-10 21:39:00,80.2,-99.9,29.97,North,-999,-999.0,-999.0,50,-99.99,,,-99.99,,2013-05-10 19:39:00,
2013-05-10 21:45:00,80.2,-99.9,29.98,North,-999,-999.0,-999.0,49,-99.99,,,-99.99,,2013-05-10 19:45:00,
2013-05-10 21:51:00,80.4,-99.9,29.98,North,-999,-999.0,-999.0,50,-99.99,,,-99.99,,2013-05-10 19:51:00,
2013-05-10 21:57:00,80.4,-99.9,29.98,North,-999,-999.0,-999.0,50,-99.99,,,-99.99,,2013-05-10 19:57:00,
2013-05-10 22:03:00,80.4,-99.9,29.98,North,-999,-999.0,-999.0,50,-99.99,,,-99.99,,2013-05-10 20:03:00,
2013-05-10 22:09:00,80.4,-99.9,29.98,North,-999,-999.0,-999.0,50,-99.99,,,-99.99,,2013-05-10 20:09:00,
2013-05-10 22:15:00,80.4,-99.9,29.98,North,-999,-999.0,-999.0,50,-99.99,,,-99.99,,2013-05-10 20:15:00,
2013-05-10 22:21:00,80.4,-99.9,29.99,North,-999,-999.0,-999.0,50,-99.99,,,-99.99,,2013-05-10 20:21:00,
2013-05-10 22:27:00,80.4,-99.9,29.98,North,-999,-999.0,-999.0,50,-99.99,,,-99.99,,2013-05-10 20:27:00,
2013-05-10 22:33:00,80.4,-99.9,29.98,North,-999,-999.0,-999.0,50,-99.99,,,-99.99,,2013-05-10 20:33:00,
2013-05-10 22:39:00,80.4,-99.9,29.98,North,-999,-999.0,-999.0,50,-99.99,,,-99.99,,2013-05-10 20:39:00,
2013-05-10 22:45:00,80.2,-99.9,29.98,North,-999,-999.0,-999.0,50,-99.99,,,-99.99,,2013-05-10 20:45:00,
2013-05-10 22:51:00,80.4,-99.9,29.98,North,-999,-999.0,-999.0,49,-99.99,,,-99.99,,2013-05-10 20:51:00,
2013-05-10 22:57:00,80.4,-99.9,29.99,North,-999,-999.0,-999.0,50,-99.99,,,-99.99,,2013-05-10 20:57:00,
2013-05-10 23:03:00,80.4,-99.9,29.99,North,-999,-999.0,-999.0,51,-99.99,,,-99.99,,2013-05-10 21:03:00,
2013-05-10 23:09:00,80.4,-99.9,29.99,North,-999,-999.0,-999.0,50,-99.99,,,-99.99,,2013-05-10 21:09:00,
2013-05-10 23:15:00,80.4,-99.9,29.99,North,-999,-999.0,-999.0,51,-99.99,,,-99.99,,2013-05-10 21:15:00,
2013-05-10 23:21:00,80.4,-99.9,29.99,North,-999,-999.0,-999.0,51,-99.99,,,-99.99,,2013-05-10 21:21:00,
2013-05-10 23:27:00,80.4,-99.9,29.98,North,-999,-999.0,-999.0,51,-99.99,,,-99.99,,2013-05-10 21:27:00,
2013-05-10 23:33:00,80.4,-99.9,29.98,North,-999,-999.0,-999.0,51,-99.99,,,-99.99,,2013-05-10 21:33:00,
2013-05-10 23:39:00,80.4,-99.9,29.98,North,-999,-999.0,-999.0,51,-99.99,,,-99.99,,2013-05-10 21:39:00,
2013-05-10 23:45:00,80.4,-99.9,29.98,North,-999,-999.0,-999.0,51,-99.99,,,-99.99,,2013-05-10 21:45:00,
2013-05-10 23:51:00,80.4,-99.9,29.99,North,-999,-999.0,-999.0,51,-99.99,,,-99.99,,2013-05-10 21:51:00,